Change the Weather History Date:

Thursday, January 26, 2012

  Actual Average Record
Temperature  
Mean Temperature 31 °F -  
Max Temperature 35 °F 30 °F 55 °F (2002)
Min Temperature 27 °F 16 °F 0 °F (2009)
Degree Days  
Heating Degree Days 34    
Moisture  
Dew Point 30 °F    
Average Humidity 92    
Maximum Humidity 99    
Minimum Humidity 87    
Precipitation  
Precipitation 0.00 in - - ()
Sea Level Pressure  
Sea Level Pressure 29.87 in    
Wind  
Wind Speed 6 mph (ESE)    
Max Wind Speed 10 mph    
Max Gust Speed -    
Visibility 4 miles    
Events Rain    
Averages and records for this station are not official NWS values.
T = Trace of Precipitation, MM = Missing Value Source: NWS Daily Summary

Daily Weather History Graph

Daily Weather History Graph

Search for Another Location

Airport or City:

Trip Planner

Search our weather history database for the weather conditions in past years. The results will help you decide how hot, cold, wet, or windy it might be!

Date:

Astronomy

Jan. 26, 2012 Rise Set
Actual Time 7:56 AM EST 5:40 PM EST
Civil Twilight 7:25 AM EST 6:11 PM EST
Nautical Twilight 6:51 AM EST 6:45 PM EST
Astronomical Twilight 6:18 AM EST 7:18 PM EST
Moon 9:17 AM EST (1/26) 9:39 PM EST (1/26)
Length of Visible Light 10h 45m
Length of Day
9h 44m
Waxing Crescent, 12% of the Moon is Illuminated
Jan 26
Waxing Crescent
Jan 30
First Quarter
Feb 7
Full
Feb 14
Last Quarter
Feb 21
New

Hourly Weather History & Observations

Time (EST) Temp. Windchill Dew Point Humidity Pressure Visibility Wind Dir Wind Speed Gust Speed Precip Events Conditions
12:14 AM 28.0 °F 22.8 °F 24.8 °F 88% 30.15 in 7.0 mi SE 4.6 mph - N/A   Clear
12:34 AM 28.2 °F 22.0 °F 25.3 °F 89% 30.13 in 5.0 mi SE 5.8 mph - N/A   Clear
12:55 AM 28.4 °F 23.3 °F 25.5 °F 89% 30.12 in 5.0 mi SSE 4.6 mph - N/A   Clear
1:14 AM 28.0 °F 22.8 °F 25.3 °F 90% 30.11 in 4.0 mi SE 4.6 mph - N/A   Clear
1:35 AM 27.5 °F 22.2 °F 25.2 °F 91% 30.09 in 4.0 mi SE 4.6 mph - N/A   Scattered Clouds
1:55 AM 28.4 °F 22.2 °F 26.2 °F 92% 30.08 in 4.0 mi SE 5.8 mph - N/A   Mostly Cloudy
2:14 AM 29.1 °F 23.0 °F 26.4 °F 90% 30.08 in 5.0 mi SE 5.8 mph - N/A   Overcast
2:35 AM 29.3 °F 23.2 °F 26.2 °F 88% 30.07 in 5.0 mi ESE 5.8 mph - N/A   Overcast
2:55 AM 29.3 °F 23.2 °F 26.4 °F 89% 30.07 in 5.0 mi East 5.8 mph - N/A   Overcast
3:14 AM 29.7 °F 24.7 °F 26.4 °F 88% 30.07 in 7.0 mi ESE 4.6 mph - N/A   Overcast
3:35 AM 29.8 °F 23.0 °F 26.6 °F 88% 30.06 in 7.0 mi ESE 6.9 mph - N/A   Overcast
3:55 AM 30.0 °F 22.4 °F 26.6 °F 87% 30.05 in 7.0 mi SE 8.1 mph - N/A   Overcast
4:14 AM 30.0 °F 22.4 °F 27.0 °F 88% 30.05 in 7.0 mi SE 8.1 mph - N/A   Overcast
4:35 AM 30.0 °F 24.1 °F 27.0 °F 88% 30.04 in 7.0 mi SE 5.8 mph - N/A   Overcast
4:54 AM 30.2 °F 24.3 °F 27.1 °F 88% 30.04 in 7.0 mi SE 5.8 mph - N/A   Overcast
5:14 AM 30.2 °F 24.3 °F 27.1 °F 88% 30.03 in 7.0 mi ESE 5.8 mph - N/A   Overcast
5:35 AM 30.2 °F 21.9 °F 27.1 °F 88% 30.00 in 7.0 mi ESE 9.2 mph - N/A   Overcast
5:55 AM 30.6 °F 21.8 °F 27.3 °F 88% 30.00 in 7.0 mi SE 10.4 mph - N/A   Overcast
6:14 AM 30.7 °F 22.6 °F 27.5 °F 88% 29.99 in 7.0 mi ESE 9.2 mph - N/A   Overcast
6:35 AM 30.9 °F 23.5 °F 27.5 °F 87% 29.98 in 7.0 mi ESE 8.1 mph - N/A   Overcast
7:15 AM 31.1 °F 23.7 °F 28.0 °F 88% 29.99 in 5.0 mi SE 8.1 mph - N/A   Overcast
7:34 AM 31.1 °F 23.7 °F 28.2 °F 89% 29.99 in 5.0 mi SE 8.1 mph - N/A   Overcast
7:55 AM 31.1 °F 25.4 °F 28.2 °F 89% 29.96 in 5.0 mi East 5.8 mph - N/A   Overcast
8:15 AM 31.1 °F 25.4 °F 28.4 °F 90% 29.97 in 5.0 mi ESE 5.8 mph - N/A   Overcast
8:34 AM 31.5 °F 24.9 °F 28.9 °F 90% 29.95 in 3.0 mi ESE 6.9 mph - N/A   Overcast
8:55 AM 31.6 °F 27.0 °F 29.1 °F 90% 29.93 in 3.0 mi East 4.6 mph - N/A   Overcast
9:14 AM 32.0 °F 25.6 °F 29.5 °F 90% 29.91 in 3.0 mi East 6.9 mph - N/A   Overcast
9:35 AM 32.0 °F 25.6 °F 29.8 °F 92% 29.91 in 3.0 mi East 6.9 mph - N/A   Overcast
9:55 AM 32.2 °F 25.8 °F 30.2 °F 92% 29.90 in 3.0 mi East 6.9 mph - N/A   Overcast
10:14 AM 32.9 °F 28.5 °F 30.6 °F 91% 29.92 in 4.0 mi East 4.6 mph - N/A   Overcast
10:35 AM 33.1 °F 27.7 °F 30.9 °F 92% 29.92 in 4.0 mi ESE 5.8 mph - N/A   Overcast
10:54 AM 33.3 °F 27.9 °F 31.1 °F 92% 29.91 in 4.0 mi East 5.8 mph - N/A   Overcast
11:15 AM 33.8 °F 27.7 °F 31.1 °F 90% 29.89 in 4.0 mi ESE 6.9 mph - N/A   Overcast
11:35 AM 33.8 °F 27.0 °F 31.3 °F 90% 29.88 in 4.0 mi ESE 8.1 mph - N/A   Overcast
11:54 AM 33.8 °F 27.0 °F 31.5 °F 91% 29.86 in 3.0 mi ESE 8.1 mph - N/A   Overcast
12:15 PM 33.8 °F 27.7 °F 31.6 °F 92% 29.84 in 3.0 mi East 6.9 mph - N/A   Overcast
12:34 PM 34.2 °F 26.8 °F 32.0 °F 92% 29.82 in 3.0 mi ESE 9.2 mph - N/A   Overcast
12:54 PM 34.5 °F 27.3 °F 32.0 °F 90% 29.80 in 4.0 mi ESE 9.2 mph - N/A   Overcast
1:15 PM 34.5 °F 29.4 °F 32.0 °F 90% 29.80 in 4.0 mi East 5.8 mph - N/A   Overcast
1:34 PM 34.7 °F 28.1 °F 32.0 °F 90% 29.78 in 4.0 mi East 8.1 mph - N/A   Overcast
1:55 PM 34.9 °F 29.9 °F 32.0 °F 89% 29.76 in 4.0 mi East 5.8 mph - N/A   Light Drizzle
2:14 PM 35.1 °F 30.1 °F 32.0 °F 89% 29.75 in 4.0 mi East 5.8 mph - N/A Rain Light Rain
2:34 PM 35.6 °F 30.7 °F 32.4 °F 88% 29.74 in 4.0 mi ENE 5.8 mph - N/A   Light Drizzle
2:55 PM 35.4 °F 30.5 °F 32.4 °F 89% 29.73 in 4.0 mi East 5.8 mph - N/A Rain Rain
3:14 PM 35.2 °F 31.2 °F 32.5 °F 90% 29.72 in 4.0 mi East 4.6 mph - N/A   Light Drizzle
3:34 PM 35.1 °F 30.1 °F 32.9 °F 92% 29.71 in 2.0 mi East 5.8 mph - N/A   Overcast
3:55 PM 34.7 °F 28.8 °F 32.9 °F 93% 29.71 in 2.0 mi East 6.9 mph - N/A   Overcast
4:14 PM 34.7 °F 31.8 °F 33.1 °F 94% 29.71 in 2.0 mi ENE 3.5 mph - N/A   Light Drizzle
4:35 PM 34.3 °F 31.4 °F 33.3 °F 96% 29.70 in 1.2 mi East 3.5 mph - N/A Rain Light Rain
4:55 PM 34.3 °F 31.4 °F 33.4 °F 97% 29.68 in 0.8 mi ENE 3.5 mph - N/A Rain Rain
5:14 PM 34.2 °F 29.0 °F 33.4 °F 97% 29.67 in 0.8 mi East 5.8 mph - N/A   Light Drizzle
5:35 PM 34.2 °F 29.0 °F 33.8 °F 99% 29.66 in 2.0 mi East 5.8 mph - N/A   Overcast
5:55 PM 34.0 °F 31.0 °F 33.4 °F 98% 29.65 in 2.0 mi East 3.5 mph - N/A   Light Drizzle
6:14 PM 34.0 °F 28.8 °F 33.4 °F 98% 29.65 in 1.5 mi East 5.8 mph - N/A   Drizzle
6:35 PM 34.0 °F 29.8 °F 33.4 °F 98% 29.65 in 1.5 mi East 4.6 mph - N/A   Light Drizzle
6:54 PM 34.0 °F 28.8 °F 33.8 °F 99% 29.63 in 1.8 mi East 5.8 mph - N/A   Light Drizzle
7:15 PM 33.8 °F 30.8 °F 33.6 °F 99% 29.63 in 1.5 mi East 3.5 mph - N/A   Light Drizzle
7:35 PM 34.0 °F 29.8 °F 33.6 °F 99% 29.63 in 1.5 mi East 4.6 mph - N/A   Light Drizzle
7:54 PM 34.0 °F 31.0 °F 33.8 °F 99% 29.63 in 1.2 mi ENE 3.5 mph - N/A   Drizzle
8:15 PM 33.8 °F - 33.4 °F 99% 29.62 in 1.0 mi Calm Calm - N/A Rain Rain
8:35 PM 33.8 °F - 33.6 °F 99% 29.61 in 1.0 mi Calm Calm - N/A   Overcast
8:54 PM 33.8 °F 30.8 °F 33.6 °F 99% 29.62 in 1.0 mi SE 3.5 mph - N/A   Overcast
9:34 PM 33.8 °F - 33.4 °F 99% 29.58 in 1.2 mi Calm Calm - N/A   Overcast
9:54 PM 33.8 °F - 33.4 °F 99% 29.57 in 1.2 mi Calm Calm - N/A Rain Light Rain
10:15 PM 33.8 °F 30.8 °F 33.4 °F 99% 29.55 in 1.5 mi North 3.5 mph - N/A Rain Light Rain
10:35 PM 33.4 °F - 33.4 °F 100% 29.54 in 1.5 mi Calm Calm - N/A   Light Drizzle
10:54 PM 33.6 °F 30.6 °F 33.4 °F 99% 29.54 in 1.8 mi North 3.5 mph - N/A Rain Rain
11:15 PM 33.8 °F - 33.4 °F 99% 29.53 in 2.0 mi Calm Calm - N/A Rain Light Rain
11:34 PM 33.8 °F - 33.4 °F 99% 29.53 in 2.5 mi Calm Calm - N/A   Overcast
11:55 PM 33.6 °F - 33.4 °F 99% 29.53 in 2.5 mi Calm Calm - N/A   Overcast